721  
ASUS41 KAKQ 241215  
RWRAKQ  
 
REGIONAL WEATHER ROUNDUP  
NATIONAL WEATHER SERVICE WAKEFIELD VA  
800 AM EDT SUN OCT 24 2021  
 
NOTE: "FAIR" INDICATES FEW OR NO CLOUDS BELOW 12,000 FEET WITH NO  
SIGNIFICANT WEATHER AND/OR S TO VISIBILITY
. * = DENOTES  
STATION MAY NOT REPORT PRECIPITATION (E.G., RAIN,SNOW,ETC.),
 
THUNDER OR FOG.  
 
VAZ042-051-052>054-056-241300-  
NORTHERN VIRGINIA  
 
CITY SKY/WX TMP DP RH WIND PRES REMARKS
 
WASH NATIONAL CLOUDY 56 46 69 CALM 30.18R  
DULLES LGT RAIN 52 49 89 S5 30.16R  
FORT BELVOIR MOCLDY 53 51 95 CALM 30.17R  
QUANTICO CLOUDY 60 46 59 E7 30.18R  
FREDERICKSBRG* NOT AVBL  
STAFFORD* NOT AVBL  
WARRENTON CLOUDY 53 50 90 CALM 30.16S  
CULPEPER* NOT AVBL  
MANASSAS* CLOUDY 52 50 93 CALM 30.17R  
LEESBURG* CLOUDY 52 50 93 CALM 30.17S  
WINCHESTER NOT AVBL  
FRONT ROYAL* CLOUDY 50 50 100 MISG 30.13S  
LURAY* NOT AVBL  

 
 
VAZ048-049-060>072-079>083-241300-  
CENTRAL AND SOUTH CENTRAL VIRGINIA  
 
CITY SKY/WX TMP DP RH WIND PRES REMARKS
 
RICHMOND MOCLDY 56 51 84 CALM 30.16R  
CHESTERFIELD* CLOUDY 53 53 100 VRB6 30.17R  
PETERSBURG* CLOUDY 53 51 94 CALM 30.16R  
HANOVER CLOUDY 54 51 90 CALM 30.18R  
TAPPAHANNOCK* CLOUDY 52 52 100 CALM 30.18R  
QUINTON* NOT AVBL  
CHARLOTTSVILLE CLOUDY 53 49 86 CALM 30.17R  
GORDONSVILLE* CLOUDY 52 52 100 CALM 30.16S  
ORANGE* CLOUDY 50 50 100 CALM 30.17R  
LOUISA* NOT AVBL  
BUMPASS* NOT AVBL  
FARMVILLE* NOT AVBL  
CREWE* CLOUDY 50 48 91 CALM 30.16R  
FORT PICKETT* CLOUDY 55 50 85 CALM 30.16R  
CHASE CITY* NOT AVBL  
CLARKSVILLE* FAIR 54 54 100 CALM 30.17R  
SOUTH HILL* NOT AVBL  
LAWRENCEVILLE* NOT AVBL  
EMPORIA* CLOUDY 52 52 99 NE3 30.17S  

 
 
VAZ088>098-241300-  
SOUTHEAST VIRGINIA  
 
CITY SKY/WX TMP DP RH WIND PRES REMARKS
 
NORFOLK CLOUDY 61 57 87 E7 30.17R  
VIRGINIA BEACH MOCLDY 58 56 93 E5 30.16R  
NORFOLK NAVAL MOCLDY 63 57 81 SE5 30.18R  
WEST POINT* NOT AVBL  
SALUDA* NOT AVBL  
NEWPORT NEWS CLOUDY 58 52 80 E6 30.17R  
LANGLEY AFB MOCLDY 62 58 88 E7 30.16R  
FORT EUSTIS MOCLDY 61 43 52 E6 30.15R  
WILLIAMSBURG* NOT AVBL  
HR EXEC AP* CLOUDY 52 52 100 CALM 30.18R FOG  
FRANKLIN* CLOUDY 52 52 98 CALM 30.17S  
US460-WAKEFLD CLOUDY 55 54 96 CALM 30.16R  

 
 
VAZ020-022-025-037-045-241300-  
WEST CENTRAL AND SOUTHWEST VIRGINIA  
 
CITY SKY/WX TMP DP RH WIND PRES REMARKS
 
STAUNTON* CLOUDY 49 48 98 CALM 30.17R  
WAYNESBORO* NOT AVBL  
HOT SPRINGS VA CLOUDY 51 43 73 SW7 30.17S  
LYNCHBURG CLOUDY 54 50 86 N3 30.16R  
DANVILLE PTCLDY 49 47 93 CALM 30.16R  
SOUTH BOSTON* PTSUNNY 51 49 93 CALM 30.16R  
MARTINSVILLE CLEAR 46 46 100 CALM 30.18R FOG  
ROANOKE CLOUDY 55 49 80 CALM 30.17R  
BLACKSBURG NOT AVBL  
DUBLIN* NOT AVBL  
MARION* NOT AVBL  
HILLSVILLE* NOT AVBL  
RICHLANDS* CLOUDY 52 45 76 CALM 30.15R  
WISE* NOT AVBL  
ABINGDON* NOT AVBL  

 
 
MDZ021>025-VAZ099-100-241300-  
SOUTHERN MARYLAND AND THE DELMARVA PENINSULA  
 
CITY SKY/WX TMP DP RH WIND PRES REMARKS
 
PATUXENT RIVER CLOUDY 59 46 62 E7 30.17R  
BAY BRIDGE APT NOT AVBL  
LEONARDTOWN CLOUDY 55 50 82 CALM 30.19R  
DOVER CLOUDY 52 48 84 CALM 30.17R  
GEORGETOWN CLOUDY 51 50 96 CALM 30.18R  
EASTON PTCLDY 54 52 94 CALM 30.22R  
CAMBRIDGE CLOUDY 52 52 100 CALM 30.19  
SALISBURY CLOUDY 52 50 93 CALM 30.18R  
TANGIER CLOUDY 60 47 62 E8 30.17S  
OCEAN CITY CLOUDY 53 51 93 CALM 30.19R  
WALLOPS ISLAND CLOUDY 55 47 74 N3 30.19R  
ACCOMACK* CLOUDY 52 29 40 E3 30.18S  

 
 
NCZ012>017-030>032-241300-  
NORTH CENTRAL AND EASTERN NORTH CAROLINA  
 
CITY SKY/WX TMP DP RH WIND PRES REMARKS
 
ROANOKE RAPIDS FAIR 46 46 100 CALM 30.16R  
RALEIGH PTCLDY 50 50 100 CALM 30.16R  
ELIZABETH CITY CLEAR 50 50 100 CALM 30.17R  
AHOSKIE* NOT AVBL  
EDENTON* NOT AVBL  
CURRITUCK* PTCLDY 53 53 100 CALM 30.17R  
KILL DEVIL HLS CLEAR 59 58 96 CALM 30.16R  
MANTEO MOCLDY 55 55 99 CALM 30.18R  
CAPE HATTERAS CLEAR 63 60 90 NE5 30.17R  
TARBORO* NOT AVBL  
GOLDSBORO CLEAR 47 45 90 CALM 30.14R  
WASHINGTON CLEAR 48 46 94 CALM 30.17R  
GREENVILLE CLEAR 45 45 100 CALM 30.17 FOG  
NEW BERN CLEAR 52 50 93 CALM 30.17S  
WILMINGTON CLEAR 55 53 93 CALM 30.14R  

 
 
VAZ048-241300-  
ELSEWHERE  
 
CITY SKY/WX TMP DP RH WIND PRES REMARKS
 
HARRISBURG PA MOCLDY 48 43 82 CALM 30.14R  
BALTIMORE LGT RAIN 53 49 86 CALM 30.17R  
ANNAPOLIS CLOUDY 57 47 69 E3 30.18R  
ANDREWS AFB CLOUDY 52 46 79 CALM 30.15R  
PHILADELPHIA MOCLDY 49 44 83 CALM 30.16S  
HENDERSON NC PTCLDY 48 48 100 CALM 30.16R  
GREENSBORO PTCLDY 49 47 93 CALM 30.15R  
ROCKY MOUNT CLEAR 49 45 86 CALM 30.17R  

 
 
VAZ100-241300-  
MARINE  
 
STATION/POSITION TIME TEMP WIND PRES WAVE SWELL
 
AIR SEA DIR/SP/G HT/PER HT/PER  
(UTC) (F) (DEG/KT/KT) (MB) (FT/S) (FT/S)  
CAPE MAY NJ 1130 54 64 120/ 2/ 4 1021.5R  
LEWES DE 1130 58 65 50/ 6/ 8 1021.6R  
15NM E FENWICK I 1150 59 67 20/ 4/ 8 1021.9R 2/ 4 2/ 6  
OCEAN-CITY-INLET 1130 56 65 340/ 2/ 3 1022.7R  
44089 WALLOPS IS 1156 67 N/A 2/15  
WACHAPREAGUE VA 1130 56 64 10/ 3/ 4 1021.9R  
THOMAS POINT MD 1200 57 67 90/ 9/ 10 1022.8R  
GOOSES REEF MD 1154 56 67 100/ 10/ 16 1023.0R 1/ 4  
COVE POINT MD 1130 58 100/ 2/ 6 1021.6R  
SOLOMONS ISLAND 1130 59 68 90/ 9/ 11 1021.3R  
BISHOPS HEAD MD 1130 58 63 90/ 8/ 10 1021.6R  
PINEY POINT MD 1130 120/ 10/ 12 N/A  
POTOMAC MD 1154 58 68 90/ 14/ 16 1022.5R  
CAMBRIDGE MD 1130 55 65 150/ 4/ 4 1021.7R  
LEWISETTA VA 1130 61 66 110/ 12/ 13 1021.4R  
RAPPAHANNOCK LGT 1130 70/ 11/ 12 1022.3R  
STINGRAY PT 1154 59 90/ 14/ 17 1022.8R  
YORK RVR RNG VA 1130 63 100/ 12/ 14 N/A  
YORKTOWN VA 1130 63 69 100/ 11/ 14 1021.0R  
DOMINION TERM VA 1130 64 70/ 10/ 12 1021.5R  
KIPTOPEKE VA 1130 69 90/ 5/ 7 N/A  
CHES BAY BRIDGE 1130 64 90/ 12/ 14 1020.4R  
CAPE HENRY VA 1130 65 80/ 13/ 15 1021.7R  
WILLOUBY STN VA 1130 65 80/ 11/ 13 1021.6R  
S CRANEY ISL VA 1130 63 CALM / 2 1021.1R  
CAPE HENRY BUOY 1156 69 N/A 2/ 3  
64NM E OF VA BCH 1150 68 320/ 4/ 8 1021.0R 2/ 8 2/ 8  
DUCK PIER NC 1130 65 70 CALM / 1 1021.2R  
44100 DUCK FRF 1126 70 N/A 2/ 7 2/15  
44056 DUCK FRF 1156 69 N/A 2/14 2/14  
OREGON INLET NC 1130 61 72 360/ 2/ 2 1021.2R  
HATTERAS NC 1130 67 72 40/ 5/ 6 1021.4R  
DIAMOND SHLS NC 1150 70 74 30/ 8/ 10 1020.7R 3/ 8 3/ 8  
CAPE LOOKOUT NC 1200 69 360/ 8/ 10 1021.4R  

 
 
 
CLICK HERE TO GO TO PREVIOUS BULLETINS.

The Nexlab VA Page
The Nexlab NC Page
The Nexlab MD Page Main Text Page